When you browse on this site, cookies collect data to enhance your experience and personalize the content and advertising you see.
Visit our Privacy Policy to learn more. By continuing to use the site, you agree to this use of cookies and data.
EN

Hourly Weather Sucre

Today, 12 August, Wednesday

Time Temperature Precipitation Wind Pressure Humidity
00:00 +9°C° 0.1 mm 2 mps 539 mmHg 86%
01:00 +9°C° 0.1 mm 2 mps 538 mmHg 87%
02:00 +8°C° 0.1 mm 2 mps 538 mmHg 88%
03:00 +8°C° 0 mm 2 mps 537 mmHg 87%
04:00 +8°C° 0 mm 2 mps 537 mmHg 86%
05:00 +8°C° 0 mm 1 mps 537 mmHg 85%
06:00 +9°C° 0 mm 1 mps 537 mmHg 80%
07:00 +9°C° 0 mm 1 mps 538 mmHg 76%
08:00 +10°C° 0 mm 1 mps 538 mmHg 71%
09:00 +12°C° 0 mm 2 mps 539 mmHg 60%
10:00 +14°C° 0 mm 2 mps 540 mmHg 48%
11:00 +16°C° 0 mm 3 mps 540 mmHg 37%
12:00 +17°C° 0 mm 4 mps 540 mmHg 32%
13:00 +19°C° 0 mm 5 mps 540 mmHg 27%
14:00 +20°C° 0 mm 5 mps 540 mmHg 23%
15:00 +20°C° 0 mm 5 mps 540 mmHg 22%
16:00 +20°C° 0 mm 5 mps 540 mmHg 21%
17:00 +20°C° 0 mm 5 mps 540 mmHg 20%
18:00 +17°C° 0 mm 5 mps 540 mmHg 29%
19:00 +15°C° 0 mm 4 mps 539 mmHg 38%
20:00 +14°C° 0 mm 3 mps 539 mmHg 46%
21:00 +13°C° 0 mm 3 mps 539 mmHg 49%
22:00 +13°C° 0 mm 2 mps 539 mmHg 52%
23:00 +12°C° 0 mm 2 mps 539 mmHg 55%

Tomorrow, 13 August, Thursday

Time Temperature Precipitation Wind Pressure Humidity
00:00 +11°C° 0 mm 1 mps 539 mmHg 53%
01:00 +10°C° 0 mm 1 mps 538 mmHg 52%
02:00 +10°C° 0 mm 1 mps 538 mmHg 50%
03:00 +9°C° 0 mm 1 mps 537 mmHg 49%
04:00 +9°C° 0 mm 1 mps 537 mmHg 49%
05:00 +8°C° 0 mm 1 mps 537 mmHg 49%
06:00 +9°C° 0 mm 1 mps 538 mmHg 42%
07:00 +10°C° 0 mm 1 mps 539 mmHg 34%
08:00 +11°C° 0 mm 1 mps 540 mmHg 27%
09:00 +13°C° 0 mm 1 mps 540 mmHg 22%
10:00 +15°C° 0 mm 2 mps 541 mmHg 17%
11:00 +17°C° 0 mm 2 mps 542 mmHg 11%
12:00 +18°C° 0 mm 3 mps 542 mmHg 10%
13:00 +20°C° 0 mm 4 mps 542 mmHg 9%
14:00 +21°C° 0 mm 5 mps 542 mmHg 8%
15:00 +21°C° 0 mm 5 mps 541 mmHg 8%
16:00 +21°C° 0 mm 4 mps 541 mmHg 8%
17:00 +21°C° 0 mm 4 mps 541 mmHg 8%
18:00 +19°C° 0 mm 3 mps 540 mmHg 17%
19:00 +17°C° 0 mm 2 mps 540 mmHg 27%
20:00 +15°C° 0 mm 1 mps 539 mmHg 36%
21:00 +14°C° 0.1 mm 1 mps 539 mmHg 42%
22:00 +13°C° 0.1 mm 1 mps 539 mmHg 49%
23:00 +13°C° 0.1 mm 1 mps 539 mmHg 55%

Day after tomorrow, 14 August, Friday

Time Temperature Precipitation Wind Pressure Humidity
00:00 +12°C° 0 mm 1 mps 539 mmHg 58%
01:00 +11°C° 0 mm 1 mps 538 mmHg 61%
02:00 +11°C° 0 mm 1 mps 538 mmHg 63%
03:00 +10°C° 0 mm 1 mps 537 mmHg 62%
04:00 +10°C° 0 mm 1 mps 537 mmHg 61%
05:00 +9°C° 0 mm 1 mps 536 mmHg 59%
06:00 +10°C° 0 mm 1 mps 537 mmHg 53%
07:00 +11°C° 0 mm 1 mps 538 mmHg 46%
08:00 +12°C° 0 mm 1 mps 539 mmHg 39%
09:00 +14°C° 0 mm 2 mps 540 mmHg 32%
10:00 +16°C° 0 mm 2 mps 540 mmHg 24%
11:00 +18°C° 0 mm 3 mps 541 mmHg 17%
12:00 +19°C° 0 mm 4 mps 541 mmHg 14%
13:00 +21°C° 0 mm 5 mps 541 mmHg 12%
14:00 +22°C° 0 mm 6 mps 541 mmHg 10%
15:00 +22°C° 0 mm 7 mps 541 mmHg 9%
16:00 +22°C° 0 mm 7 mps 541 mmHg 9%
17:00 +23°C° 0 mm 7 mps 541 mmHg 8%
18:00 +20°C° 0 mm 5 mps 540 mmHg 14%
19:00 +18°C° 0 mm 4 mps 540 mmHg 21%
20:00 +16°C° 0 mm 2 mps 539 mmHg 27%
21:00 +15°C° 0 mm 2 mps 539 mmHg 32%
22:00 +14°C° 0 mm 1 mps 539 mmHg 37%
23:00 +13°C° 0 mm 1 mps 539 mmHg 42%

15 August, Saturday

Time Temperature Precipitation Wind Pressure Humidity
00:00 +12°C° 0 mm 1 mps 539 mmHg 47%
01:00 +11°C° 0 mm 1 mps 538 mmHg 51%
02:00 +11°C° 0 mm 1 mps 538 mmHg 55%
03:00 +10°C° 0 mm 1 mps 537 mmHg 57%
04:00 +9°C° 0 mm 1 mps 537 mmHg 58%
05:00 +9°C° 0 mm 1 mps 537 mmHg 59%
06:00 +10°C° 0 mm 1 mps 538 mmHg 55%
07:00 +11°C° 0 mm 1 mps 538 mmHg 51%
08:00 +12°C° 0 mm 1 mps 539 mmHg 47%
09:00 +13°C° 0 mm 2 mps 540 mmHg 41%
10:00 +15°C° 0 mm 2 mps 540 mmHg 34%
11:00 +17°C° 0 mm 3 mps 541 mmHg 27%
12:00 +18°C° 0 mm 4 mps 541 mmHg 24%
13:00 +20°C° 0 mm 5 mps 541 mmHg 22%
14:00 +21°C° 0 mm 6 mps 540 mmHg 19%
15:00 +21°C° 0 mm 6 mps 540 mmHg 24%
16:00 +20°C° 0 mm 6 mps 539 mmHg 29%
17:00 +20°C° 0 mm 7 mps 539 mmHg 34%
18:00 +17°C° 0.2 mm 5 mps 539 mmHg 43%
19:00 +17°C° 0.2 mm 3 mps 539 mmHg 52%
20:00 +15°C° 0.2 mm 1 mps 539 mmHg 60%
21:00 +14°C° 0.1 mm 1 mps 539 mmHg 62%
22:00 +13°C° 0.1 mm 1 mps 539 mmHg 63%
23:00 +13°C° 0.1 mm 2 mps 539 mmHg 65%

16 August, Sunday

Time Temperature Precipitation Wind Pressure Humidity
00:00 +12°C° 0 mm 1 mps 539 mmHg 69%
01:00 +11°C° 0 mm 1 mps 538 mmHg 74%
02:00 +11°C° 0 mm 1 mps 538 mmHg 78%
03:00 +10°C° 0 mm 1 mps 537 mmHg 76%
04:00 +10°C° 0 mm 1 mps 537 mmHg 73%
05:00 +8°C° 0 mm 0 mps 537 mmHg 71%
06:00 +9°C° 0 mm 0 mps 538 mmHg 64%
07:00 +11°C° 0 mm 1 mps 539 mmHg 57%
08:00 +11°C° 0 mm 1 mps 540 mmHg 50%
09:00 +13°C° 0 mm 1 mps 541 mmHg 43%
10:00 +15°C° 0 mm 2 mps 541 mmHg 36%
11:00 +17°C° 0 mm 3 mps 542 mmHg 30%
12:00 +18°C° 0 mm 4 mps 542 mmHg 29%
13:00 +19°C° 0 mm 6 mps 542 mmHg 27%
14:00 +21°C° 0 mm 7 mps 541 mmHg 26%
15:00 +20°C° 0.1 mm 6 mps 541 mmHg 34%
16:00 +17°C° 0.1 mm 6 mps 540 mmHg 42%
17:00 +16°C° 0.1 mm 5 mps 539 mmHg 50%
18:00 +15°C° 0.1 mm 4 mps 539 mmHg 58%
19:00 +13°C° 0.1 mm 3 mps 539 mmHg 66%
20:00 +13°C° 0.1 mm 2 mps 539 mmHg 74%
21:00 +12°C° 0.1 mm 2 mps 539 mmHg 77%
22:00 +12°C° 0.1 mm 2 mps 539 mmHg 79%
23:00 +10°C° 0.1 mm 2 mps 539 mmHg 82%

17 August, Monday

Time Temperature Precipitation Wind Pressure Humidity
00:00 +10°C° 0 mm 2 mps 538 mmHg 80%
01:00 +9°C° 0 mm 2 mps 538 mmHg 78%
02:00 +9°C° 0 mm 2 mps 537 mmHg 75%
03:00 +8°C° 0 mm 2 mps 537 mmHg 74%
04:00 +8°C° 0 mm 2 mps 537 mmHg 72%
05:00 +8°C° 0 mm 1 mps 536 mmHg 70%
06:00 +9°C° 0 mm 1 mps 537 mmHg 67%
07:00 +9°C° 0 mm 1 mps 537 mmHg 64%
08:00 +10°C° 0 mm 1 mps 538 mmHg 62%
09:00 +11°C° 0 mm 3 mps 539 mmHg 52%
10:00 +13°C° 0 mm 4 mps 540 mmHg 41%
11:00 +16°C° 0 mm 5 mps 541 mmHg 31%
12:00 +17°C° 0 mm 6 mps 541 mmHg 26%
13:00 +20°C° 0 mm 7 mps 540 mmHg 20%
14:00 +21°C° 0 mm 7 mps 540 mmHg 14%
15:00 +21°C° 0 mm 7 mps 540 mmHg 15%
16:00 +21°C° 0 mm 7 mps 540 mmHg 16%
17:00 +21°C° 0 mm 7 mps 539 mmHg 17%
18:00 +19°C° 0 mm 6 mps 539 mmHg 26%
19:00 +17°C° 0 mm 4 mps 539 mmHg 34%
20:00 +14°C° 0 mm 2 mps 538 mmHg 43%
21:00 +14°C° 0 mm 2 mps 538 mmHg 51%
22:00 +13°C° 0 mm 2 mps 538 mmHg 59%
23:00 +11°C° 0 mm 3 mps 538 mmHg 67%
Show more